TimeADT,TemperatureF,Dew PointF,Humidity,Sea Level PressureIn,VisibilityMPH,Wind Direction,Wind SpeedMPH,Gust SpeedMPH,PrecipitationIn,Events,Conditions,WindDirDegrees,DateUTC
12:00 AM,62.6,62.6,100,29.82,6.0,SSW,13.8,23.0,N/A,,Overcast,200,2012-10-16 03:00:00
1:00 AM,62.6,62.6,100,29.81,4.0,SSW,13.8,-,N/A,,Overcast,200,2012-10-16 04:00:00
1:29 AM,62.6,62.6,100,29.79,1.0,South,11.5,18.4,N/A,,Mist,190,2012-10-16 04:29:00
2:00 AM,62.6,62.6,100,29.78,0.8,SSW,13.8,20.7,N/A,,Mist,200,2012-10-16 05:00:00
3:00 AM,63,63,98,29.75,1,South,11.5,,,,Mist,180,2012-10-16 06:00:00
3:00 AM,62.6,62.6,100,29.75,0.8,South,13.8,-,N/A,,Mist,180,2012-10-16 06:00:00
4:00 AM,62.6,62.6,100,29.72,2.0,South,10.4,-,N/A,Rain,Light Rain,180,2012-10-16 07:00:00
5:00 AM,62.6,62.6,100,29.72,4.0,South,9.2,17.3,N/A,Rain,Light Rain,170,2012-10-16 08:00:00
6:00 AM,62.6,62.6,100,29.69,3.0,South,9.2,-,N/A,Rain,Light Rain,180,2012-10-16 09:00:00
6:10 AM,62.6,62.6,100,29.69,0.8,South,9.2,-,N/A,,Light Drizzle,180,2012-10-16 09:10:00
6:40 AM,62.6,62.6,100,29.68,2.0,South,10.4,-,N/A,,Light Drizzle,190,2012-10-16 09:40:00
7:00 AM,62.6,62.6,100,29.67,3.0,SSW,11.5,18.4,N/A,,Light Drizzle,210,2012-10-16 10:00:00
7:40 AM,62.6,62.6,100,29.65,3.0,South,9.2,-,N/A,Rain,Light Rain,180,2012-10-16 10:40:00
8:00 AM,62.6,62.6,100,29.65,4.0,South,8.1,-,N/A,Rain,Light Rain,170,2012-10-16 11:00:00
8:09 AM,62.6,62.6,100,29.65,0.5,SSE,8.1,-,N/A,Fog-Rain,Light Rain,150,2012-10-16 11:09:00
8:16 AM,62.6,62.6,100,29.65,0.1,SE,10.4,-,N/A,Fog,Fog,140,2012-10-16 11:16:00
9:00 AM,61,61,98,29.65,0,SSE,11.5,,,Fog,Heavy Fog,160,2012-10-16 12:00:00
9:00 AM,60.8,60.8,100,29.65,0.1,SSE,11.5,18.4,N/A,Fog,Fog,160,2012-10-16 12:00:00
9:09 AM,60.8,60.8,100,29.65,1.0,South,12.7,20.7,N/A,,Overcast,170,2012-10-16 12:09:00
9:14 AM,60.8,60.8,100,29.64,2.0,South,13.8,20.7,N/A,Rain,Light Rain,170,2012-10-16 12:14:00
10:00 AM,62.6,62.6,100,29.62,2.0,South,15.0,24.2,N/A,Rain,Light Rain,180,2012-10-16 13:00:00
10:12 AM,60.8,60.8,100,29.62,3.0,South,13.8,-,N/A,Rain,Light Rain,180,2012-10-16 13:12:00
10:37 AM,60.8,60.8,100,29.60,3.0,South,10.4,18.4,N/A,Rain,Light Rain,170,2012-10-16 13:37:00
10:47 AM,60.8,60.8,100,29.59,1.5,SSE,10.4,-,N/A,Rain,Rain,160,2012-10-16 13:47:00
11:00 AM,60.8,60.8,100,29.58,3.0,SSE,11.5,19.6,N/A,Rain,Rain,160,2012-10-16 14:00:00
11:26 AM,62.6,62.6,100,29.56,3.0,South,12.7,20.7,N/A,Rain,Light Rain,170,2012-10-16 14:26:00
12:00 PM,62.6,62.6,100,29.55,1.8,South,11.5,21.9,N/A,Rain,Light Rain,180,2012-10-16 15:00:00
12:12 PM,62.6,62.6,100,29.52,0.8,SSE,12.7,-,N/A,,Mist,150,2012-10-16 15:12:00
12:45 PM,62.6,62.6,100,29.50,0.5,South,15.0,23.0,N/A,Fog,Fog,170,2012-10-16 15:45:00
1:00 PM,62.6,62.6,100,29.49,0.5,South,13.8,21.9,N/A,Fog-Rain,Light Rain,170,2012-10-16 16:00:00
1:22 PM,62.6,62.6,100,29.48,1.5,South,15.0,21.9,N/A,Rain,Light Rain,180,2012-10-16 16:22:00
1:45 PM,62.6,62.6,100,29.46,0.5,South,15.0,23.0,N/A,Fog,Light Drizzle,180,2012-10-16 16:45:00
1:51 PM,62.6,62.6,100,29.46,0.8,South,12.7,23.0,N/A,,Light Drizzle,180,2012-10-16 16:51:00
2:00 PM,62.6,62.6,100,29.45,0.8,South,16.1,25.3,N/A,,Light Drizzle,170,2012-10-16 17:00:00
2:23 PM,62.6,62.6,100,29.43,10.0,SSW,17.3,29.9,N/A,Rain,Light Rain Showers,200,2012-10-16 17:23:00
2:50 PM,62.6,62.6,100,29.39,12.0,SSW,17.3,32.2,N/A,Rain,Light Rain Showers,200,2012-10-16 17:50:00
3:00 PM,63,63,100,29.40,15,SSW,19.6,,,Rain,Light Rain Showers,200,2012-10-16 18:00:00
3:00 PM,62.6,62.6,100,29.40,15.0,SSW,20.7,27.6,N/A,Rain,Light Rain Showers,200,2012-10-16 18:00:00
3:43 PM,62.6,62.6,100,29.39,15.0,SSW,13.8,23.0,N/A,,Overcast,210,2012-10-16 18:43:00
4:00 PM,62.6,62.6,100,29.39,15.0,SSW,17.3,26.5,N/A,,Overcast,210,2012-10-16 19:00:00
4:20 PM,62.6,62.6,100,29.38,3.0,SSW,20.7,32.2,N/A,,Light Drizzle,210,2012-10-16 19:20:00
5:00 PM,60.8,60.8,100,29.39,10.0,SSW,17.3,27.6,N/A,,Overcast,210,2012-10-16 20:00:00
6:00 PM,60.8,60.8,100,29.42,15.0,SW,17.3,25.3,N/A,,Mostly Cloudy,220,2012-10-16 21:00:00
7:00 PM,59.0,59.0,100,29.46,15.0,SW,15.0,-,N/A,,Mostly Cloudy,230,2012-10-16 22:00:00
8:00 PM,57.2,57.2,100,29.50,15.0,West,13.8,20.7,N/A,,Scattered Clouds,260,2012-10-16 23:00:00
9:00 PM,53,51,91,29.55,15,West,11.5,,,,Partly Cloudy,280,2012-10-17 00:00:00
9:00 PM,53.6,51.8,94,29.55,15.0,West,9.2,-,N/A,,Mostly Cloudy,280,2012-10-17 00:00:00
10:00 PM,50.0,50.0,100,29.59,15.0,West,13.8,20.7,N/A,,Scattered Clouds,270,2012-10-17 01:00:00
11:00 PM,50.0,48.2,94,29.63,15.0,West,13.8,19.6,N/A,,Overcast,260,2012-10-17 02:00:00